{"data":{"norad_id":69619,"epoch":"2026-09-19T17:25:40.017504Z","epoch_age_seconds":95792,"freshness":"FRESH","line1":"1 69619U 26140AD  26262.72615761  .00009708  00000+0  27258-3 0  9997","line2":"2 69619  51.8777 301.1329 0009702 157.9334 202.2073 15.37169600 15782","mean_motion":15.371696,"eccentricity":0.0009702,"inclination_deg":51.8777,"raan_deg":301.1329,"arg_perigee_deg":157.9334,"mean_anomaly_deg":202.2073,"bstar":0.00027258,"rev_number":1578,"period_min":93.678667597902,"perigee_km":447.85475892541,"apogee_km":461.11277626285,"semimajor_km":6832.6207675941,"source":"CELESTRAK","updated_at":"2026-09-20T09:00:25.029770Z"}}